Philadelphia, PA

8:12 AM EST on November 17, 2019 (GMT -0500)
Philadelphia International

Weather History for KPHL - May, 2019

Change the Weather History Date:

Wednesday, May 8, 2019

  Actual Average Record
Temperature  
Mean Temperature 64 °F 61 °F  
Max Temperature 70 °F 71 °F 93 °F (1936)
Min Temperature 58 °F 51 °F 37 °F (1947)
Degree Days  
Heating Degree Days 1 5  
Month to date heating degree days 21 46  
Since 1 July heating degree days 4306 4536  
Cooling Degree Days 0 1  
Month to date cooling degree days 4 8  
Year to date cooling degree days 28 21  
Growing Degree Days 14 (Base 50)    
Moisture  
Dew Point 57 °F    
Average Humidity 79    
Maximum Humidity 100    
Minimum Humidity 57    
Precipitation  
Precipitation 0.46 in 0.12 in 1.42 in (1998)
Month to date precipitation 1.66 0.89  
Year to date precipitation 15.72 13.92  
Snow  
Snow 0.00 in 0.00 in T in (1947)
Month to date snowfall 0.0 0.0  
Since 1 July snowfall 17.1 22.4  
Snow Depth 0.00 in    
Sea Level Pressure  
Sea Level Pressure 30.19 in    
Wind  
Wind Speed 7 mph (ENE)    
Max Wind Speed 15 mph    
Max Gust Speed 20 mph    
Visibility 6 miles    
Events Rain    
T = Trace of Precipitation, MM = Missing Value Source: NWS Daily Summary

Daily Weather History Graph

Daily Weather History Graph

Search for Another Location

Airport or City:

Astronomy

May. 08, 2019 Rise Set
Actual Time 5:53 AM EDT 8:02 PM EDT
Civil Twilight 5:23 AM EDT 8:32 PM EDT
Nautical Twilight 4:46 AM EDT 9:08 PM EDT
Astronomical Twilight 4:07 AM EDT 9:49 PM EDT
Moon 8:48 AM EDT (5/8) No Moon Set
Length of Visible Light 15h 08m
Length of Day
14h 08m
Waxing Crescent, 15% of the Moon is Illuminated
May 8
Waxing Crescent
May 11
First Quarter
May 18
Full
May 26
Last Quarter
Jun 3
New

Hourly Weather History & Observations

Time (EDT) Temp. Dew Point Humidity Pressure Visibility Wind Dir Wind Speed Gust Speed Precip Events Conditions
12:16 AM 63.0 °F 59.0 °F 87% 30.15 in 6.0 mi NNE 8.1 mph - 0.00 in Rain Light Rain
12:43 AM 62.1 °F 60.1 °F 93% 30.14 in 4.0 mi East 6.9 mph - 0.08 in Rain Rain
12:54 AM 62.1 °F 60.1 °F 93% 30.14 in 4.0 mi East 4.6 mph - 0.13 in Rain Rain
1:54 AM 62.1 °F 60.1 °F 93% 30.15 in 3.0 mi Calm Calm - 0.19 in Rain Light Rain
2:26 AM 62.1 °F 60.1 °F 93% 30.14 in 5.0 mi Calm Calm - 0.05 in   Overcast
2:54 AM 61.0 °F 60.1 °F 97% 30.14 in 6.0 mi NE 3.5 mph - 0.08 in Rain Light Rain
3:20 AM 62.1 °F 61.0 °F 96% 30.14 in 3.0 mi Calm Calm - 0.05 in Rain Rain
3:42 AM 62.1 °F 60.1 °F 93% 30.15 in 3.0 mi Calm Calm - 0.08 in Rain Rain
3:50 AM 62.6 °F 60.8 °F 94% 30.14 in 3.0 mi Calm Calm - 0.10 in Rain Light Rain
3:54 AM 61.0 °F 60.1 °F 97% 30.14 in 3.0 mi East 5.8 mph - 0.11 in Rain Rain
4:54 AM 62.1 °F 60.1 °F 93% 30.14 in 4.0 mi ESE 4.6 mph - 0.09 in Rain Light Rain
5:14 AM 62.1 °F 60.1 °F 93% 30.14 in 3.0 mi Calm Calm - 0.00 in   Overcast
5:42 AM 62.1 °F 60.1 °F 93% 30.14 in 6.0 mi NE 5.8 mph - 0.00 in   Overcast
5:54 AM 62.1 °F 60.1 °F 93% 30.15 in 6.0 mi NE 6.9 mph - 0.00 in   Overcast
6:13 AM 62.1 °F 60.1 °F 93% 30.16 in 7.0 mi ENE 5.8 mph - N/A   Overcast
6:34 AM 62.1 °F 59.0 °F 90% 30.17 in 4.0 mi NNE 9.2 mph - N/A   Overcast
6:54 AM 61.0 °F 59.0 °F 93% 30.18 in 2.5 mi NE 11.5 mph - N/A   Overcast
7:23 AM 61.0 °F 59.0 °F 93% 30.18 in 3.0 mi NE 11.5 mph - N/A   Overcast
7:46 AM 61.0 °F 59.0 °F 93% 30.18 in 2.5 mi NE 9.2 mph - N/A   Overcast
7:54 AM 61.0 °F 59.0 °F 93% 30.19 in 2.0 mi NE 10.4 mph - N/A   Overcast
8:21 AM 61.0 °F 59.0 °F 93% 30.19 in 2.0 mi NE 9.2 mph 19.6 mph N/A   Overcast
8:39 AM 61.0 °F 59.0 °F 93% 30.20 in 2.5 mi ENE 8.1 mph - 0.00 in   Light Drizzle
8:47 AM 61.0 °F 57.9 °F 90% 30.21 in 2.5 mi NE 9.2 mph - 0.00 in   Light Drizzle
8:54 AM 60.1 °F 57.9 °F 93% 30.21 in 2.5 mi NE 12.7 mph - 0.00 in   Light Drizzle
9:03 AM 60.1 °F 57.9 °F 93% 30.21 in 3.0 mi NE 10.4 mph - 0.00 in   Light Drizzle
9:18 AM 60.1 °F 57.9 °F 93% 30.21 in 2.0 mi ENE 9.2 mph - 0.00 in   Light Drizzle
9:49 AM 59.0 °F 57.2 °F 94% 30.22 in 2.5 mi NE 13.8 mph - 0.00 in   Light Drizzle
9:54 AM 59.0 °F 57.0 °F 93% 30.22 in 2.5 mi NE 13.8 mph - 0.00 in   Light Drizzle
10:03 AM 59.0 °F 57.0 °F 93% 30.23 in 3.0 mi NE 13.8 mph - 0.00 in   Light Drizzle
10:20 AM 57.9 °F 55.9 °F 93% 30.23 in 5.0 mi ENE 11.5 mph - 0.00 in Rain Light Rain
10:37 AM 57.9 °F 55.0 °F 90% 30.23 in 10.0 mi ENE 12.7 mph - 0.00 in   Overcast
10:43 AM 59.0 °F 55.0 °F 87% 30.23 in 10.0 mi ENE 10.4 mph - 0.00 in   Overcast
10:54 AM 59.0 °F 55.9 °F 90% 30.23 in 8.0 mi NE 9.2 mph - 0.00 in   Overcast
11:18 AM 60.1 °F 55.0 °F 83% 30.23 in 10.0 mi NE 9.2 mph - N/A   Overcast
11:29 AM 61.0 °F 55.0 °F 81% 30.23 in 10.0 mi NE 9.2 mph - N/A   Overcast
11:54 AM 62.1 °F 54.0 °F 75% 30.23 in 10.0 mi NE 11.5 mph - N/A   Overcast
12:41 PM 64.0 °F 54.0 °F 70% 30.22 in 10.0 mi ENE 10.4 mph - N/A   Overcast
12:54 PM 64.9 °F 53.1 °F 65% 30.22 in 10.0 mi ENE 8.1 mph - N/A   Overcast
1:39 PM 66.0 °F 54.0 °F 65% 30.21 in 10.0 mi NE 9.2 mph - N/A   Overcast
1:54 PM 66.9 °F 53.1 °F 61% 30.20 in 10.0 mi ENE 5.8 mph - N/A   Mostly Cloudy
2:54 PM 69.1 °F 54.0 °F 58% 30.19 in 10.0 mi East 9.2 mph - N/A   Mostly Cloudy
3:54 PM 70.0 °F 55.0 °F 59% 30.18 in 10.0 mi East 8.1 mph - N/A   Mostly Cloudy
4:54 PM 69.1 °F 55.0 °F 61% 30.18 in 10.0 mi East 8.1 mph - N/A   Overcast
5:54 PM 68.0 °F 55.0 °F 63% 30.18 in 10.0 mi East 5.8 mph - N/A   Overcast
6:54 PM 64.9 °F 54.0 °F 68% 30.19 in 10.0 mi ESE 9.2 mph - N/A   Overcast
7:54 PM 63.0 °F 53.1 °F 70% 30.20 in 10.0 mi SE 8.1 mph - N/A   Mostly Cloudy
8:54 PM 61.0 °F 52.0 °F 72% 30.22 in 10.0 mi SE 6.9 mph - N/A   Mostly Cloudy
9:54 PM 61.0 °F 52.0 °F 72% 30.24 in 10.0 mi East 3.5 mph - N/A   Overcast
10:54 PM 59.0 °F 53.1 °F 81% 30.24 in 10.0 mi East 3.5 mph - N/A   Overcast
11:54 PM 59.0 °F 53.1 °F 81% 30.24 in 10.0 mi Calm Calm - N/A   Mostly Cloudy